Regional Weather Roundup
Issued by NWS

Home | Current Version | Previous Version | Graphics & Text | Print | Product List | Glossary On
Versions: 1 2 3 4 5 6 7 8 9 10 11 12 13 14 15 16 17 18 19 20 21 22 23 24 25 26 27 28 29 30 31 32 33 34 35 36 37 38 39 40 41 42 43 44 45 46 47 48 49 50
000
ASUS43 KDMX 311207
RWRIA

WEATHER ROUNDUP FOR IOWA
NATIONAL WEATHER SERVICE DES MOINES IA
700 AM CDT FRI JUL 31 2015

NOTE: "FAIR" INDICATES FEW OR NO CLOUDS BELOW 12,000 FEET WITH NO
SIGNIFICANT WEATHER AND/OR OBSTRUCTIONS TO VISIBILITY.

* - THESE STATIONS ARE NOT NWS STATIONS...THUS NOT UNDER NWS
QUALITY CONTROL.  THEY ALSO DO NOT REPORT WEATHER SUCH
AS PRECIPITATION OR FOG.

IAZ001>003-012>014-020>022-031>034-043>046-311300-
   NORTHWEST IOWA

CITY           SKY/WX    TMP DP  RH WIND       PRES   REMARKS
CARROLL *      CLEAR     66  64  94 CALM      30.14S
CHEROKEE *     PTCLDY    65  65 100 CALM      30.14S
DENISON *      CLEAR     64  63  94 CALM      30.13R FOG
LE MARS *      PTCLDY    64  64 100 CALM      30.15R
ORANGE CITY *  CLEAR     66  61  82 CALM      30.15R
SHELDON *      PTCLDY    59  59 100 CALM      30.14R
SIOUX CITY     CLEAR     65  61  87 E5        30.14R
6HR MIN TEMP:  65; 6HR MAX TEMP:  72;

SPENCER        PTCLDY    60  57  89 W3        30.14R
6HR MIN TEMP:  60; 6HR MAX TEMP:  66;

STORM LAKE *   PTCLDY    66  64  94 NW5       30.15S
$$

IAZ055>058-069>071-079>083-090>094-311300-
   SOUTHWEST IOWA

CITY           SKY/WX    TMP DP  RH WIND       PRES   REMARKS
ATLANTIC *     CLEAR     66  66 100 N6        30.15R
AUDUBON *      CLEAR     64  61  88 CALM      30.16R
CLARINDA *     CLEAR     68  68 100 S7        30.16F
COUNCIL BLFS * CLEAR     68  64  88 SW10      30.15R
CRESTON *      CLEAR     68  63  83 W8        30.16F
HARLAN  *      CLEAR     63  63 100 CALM      30.18R
LAMONI           N/A     70  64  81 W7        30.15R
6HR MIN TEMP:  69; 6HR MAX TEMP:  73;

RED OAK *      CLEAR     68  66  94 CALM      30.14S
SHENANDOAH *   CLEAR     68  66  94 W6        30.15F
$$

IAZ047>049-059>061-072>074-084-311300-
   CENTRAL IOWA

CITY           SKY/WX    TMP DP  RH WIND       PRES   REMARKS
AMES           PTCLDY    66  63  90 CALM      30.12F
6HR MIN TEMP:  63; 6HR MAX TEMP:  68;

ANKENY *       CLEAR     70  64  83 N7G15     30.13R
CHARITON *     CLOUDY    70  63  78 W6        30.13S
DES MOINES     PTCLDY    71  63  75 CALM      30.12R
6HR MIN TEMP:  69; 6HR MAX TEMP:  73;

GRINNELL*      CLEAR     66  64  94 W6        30.13R
KNOXVILLE *    PTCLDY    68  63  83 W7        30.11S
MARSHALLTOWN   PTCLDY    65  63  93 W5        30.11R
6HR MIN TEMP:  63; 6HR MAX TEMP:  67;

PELLA *        CLEAR     70  67  91 W6        30.13R
PERRY *          N/A     68  64  88 N8        30.14R
$$

IAZ004>006-015-016-023>025-035-036-311300-
   NORTH CENTRAL IOWA

CITY           SKY/WX    TMP DP  RH WIND       PRES   REMARKS
ALGONA *       MOCLDY    64  61  88 W6        30.13R
CLARION *      CLEAR     61  61 100 CALM      30.13R
ESTHERVILLE    PTCLDY    63  61  93 W3        30.13R
6HR MIN TEMP:  60; 6HR MAX TEMP:  66;

FORT DODGE *   MOCLDY    64  61  88 CALM      30.14S
MASON CITY     CLEAR     63  61  93 NW5       30.13R
6HR MIN TEMP:  62; 6HR MAX TEMP:  72;

FOREST CITY *  PTCLDY    59  59 100 CALM      30.13R
IOWA FALLS *     N/A     64  62  93 W3        30.13R
$$

IAZ007>011-017>019-026>030-037>042-050>054-066-311300-
   NORTHEAST IOWA

CITY           SKY/WX    TMP DP  RH WIND       PRES   REMARKS
CEDAR RAPIDS   CLEAR     66  65  96 W7        30.09R
6HR MIN TEMP:  64; 6HR MAX TEMP:  68;

CHARLES CITY * CLEAR     64  64 100 W7        30.11R
CLINTON *      SUNNY     64  64 100 NW7       30.10R
DECORAH *      SUNNY     64  63  94 W3        30.07R
DUBUQUE        MOSUNNY   67  64  90 W8        30.07R
6HR MIN TEMP:  62; 6HR MAX TEMP:  67;

MONTICELLO *   SUNNY     68  64  88 W8        30.08R
OELWEIN *        N/A    N/A N/A N/A MISG      30.10R
WATERLOO       CLEAR     67  64  90 W6        30.09R
6HR MIN TEMP:  65; 6HR MAX TEMP:  71;

$$

IAZ064-065-067-068-078-311300-
   EAST CENTRAL IOWA

CITY           SKY/WX    TMP DP  RH WIND       PRES   REMARKS
DAVENPORT      SUNNY     67  64  90 W8        30.07R
6HR MIN TEMP:  64; 6HR MAX TEMP:  67;

IOWA CITY      CLEAR     67  64  90 W6        30.10R
6HR MIN TEMP:  65; 6HR MAX TEMP:  69;

MT. PLEASANT * CLEAR     68  64  86 W5        30.11R
MUSCATINE *    CLEAR     70  64  83 W7        30.09R
QUAD CITIES    SUNNY     68  64  87 W5        30.07R
6HR MIN TEMP:  65; 6HR MAX TEMP:  69;

$$

IAZ062-063-075>077-085>089-095>099-311300-
   SOUTHEAST IOWA

CITY           SKY/WX    TMP DP  RH WIND       PRES   REMARKS
BURLINGTON     CLEAR     70  65  84 W6        30.10R
6HR MIN TEMP:  67; 6HR MAX TEMP:  72;

FAIRFIELD *    CLEAR     66  63  88 W6        30.11R
FORT MADISON * CLEAR     70  64  83 W8        30.11S
KEOKUK *       CLEAR     70  64  83 W8        30.10S
OSKALOOSA *      N/A     65  63  91 W6        30.12R
CENTERVILLE *  PTCLDY    70  64  83 W6        30.15R
OTTUMWA        CLEAR     68  64  87 W8        30.10R
6HR MIN TEMP:  65; 6HR MAX TEMP:  68;

WASHINGTON *   CLEAR     68  64  88 W6        30.11R
$$

ABBREVIATIONS USED IN REMARKS
   TC - TEMPERATURES IN CELSIUS
  WCI - WIND CHILL INDEX
   HX - HEAT INDEX
  VSB - VISIBILITY
$$



USA.gov is the U.S. government's official web portal to all federal, state and local government web resources and services.